Location: Castelbiague
(43.0361°N, 0.9246°E)
Time: 12:29:50
(UTC+00:00)

Cosmos 1844 Rocket - Visible Passes

Search period start: 22 October 2021 00:00
Search period end: 01 November 2021 00:00
Orbit: 826 x 843 km, 71.0° (Epoch: 21 October)

Date Brightness Start Highest point End Pass type
(mag) Time Alt. Az. Time Alt. Az. Time Alt. Az.
22 Oct 3.9 17:58:31 10° N 18:02:50 22° NE 18:05:24 17° E visible
22 Oct 3.0 19:41:40 10° NNW 19:47:06 62° WSW 19:47:06 62° WSW visible
23 Oct 3.9 17:41:24 10° N 17:45:32 21° NE 17:49:18 11° E visible
23 Oct 2.8 19:24:24 10° NNW 19:29:57 68° WSW 19:31:01 55° SSW visible
24 Oct 4.0 17:24:17 10° N 17:28:13 19° NE 17:32:09 10° E visible
24 Oct 2.7 19:07:10 10° NNW 19:12:44 75° WSW 19:15:10 35° S visible
25 Oct 2.7 18:49:54 10° NNW 18:55:30 82° WSW 18:59:38 19° SSE visible
25 Oct 5.5 20:37:25 10° W 20:38:25 10° W 20:39:24 10° WSW visible
26 Oct 2.6 18:32:40 10° NNW 18:38:16 89° WSW 18:43:50 10° SSE visible
26 Oct 5.5 20:19:19 10° WNW 20:21:16 12° W 20:23:11 10° WSW visible
27 Oct 2.6 18:15:25 10° NNW 18:21:02 84° ENE 18:26:36 10° SSE visible
27 Oct 5.5 20:01:34 10° WNW 20:04:05 13° W 20:06:37 10° SW visible
28 Oct 2.6 17:58:11 10° NNW 18:03:47 77° ENE 18:09:21 10° SSE visible
28 Oct 5.4 19:43:57 10° WNW 19:46:56 15° W 19:49:54 10° SW visible
29 Oct 2.6 17:40:58 10° NNW 17:46:32 71° ENE 17:52:05 10° SSE visible
29 Oct 5.4 19:26:24 10° WNW 19:29:46 16° W 19:33:06 10° SW visible
30 Oct 2.7 17:23:44 10° NNW 17:29:17 64° ENE 17:34:49 10° SE visible
30 Oct 5.3 19:08:55 10° WNW 19:12:35 18° W 19:16:15 10° SW visible
31 Oct 5.3 18:51:28 10° NW 18:55:25 20° W 18:59:20 10° SW visible
